www.pogodaiklimat.ru
ПОГОДА в Киле
Время
(UTC), дата
07 11.01
08 11.01
09 11.01
10 11.01
11 11.01
12 11.01
13 11.01
14 11.01
15 11.01
16 11.01
17 11.01
18 11.01
19 11.01
20 11.01
21 11.01
22 11.01
23 11.01
00 12.01
01 12.01
02 12.01
03 12.01
04 12.01
05 12.01
06 12.01
07 12.01
08 12.01
09 12.01
10 12.01
11 12.01
12 12.01
13 12.01
14 12.01
15 12.01
16 12.01
17 12.01
18 12.01
19 12.01
20 12.01
21 12.01
22 12.01
23 12.01
00 13.01
01 13.01
02 13.01
03 13.01
04 13.01
05 13.01
06 13.01
07 13.01
08 13.01
09 13.01
10 13.01
11 13.01
12 13.01
13 13.01
14 13.01
15 13.01
16 13.01
17 13.01
18 13.01
19 13.01
20 13.01
21 13.01
22 13.01
23 13.01
00 14.01
01 14.01
02 14.01
03 14.01
04 14.01
05 14.01
06 14.01
07 14.01
08 14.01
09 14.01
10 14.01
11 14.01
12 14.01
13 14.01
14 14.01
15 14.01
16 14.01
17 14.01
18 14.01
19 14.01
20 14.01
21 14.01
22 14.01
23 14.01
00 15.01
01 15.01
02 15.01
03 15.01
04 15.01
05 15.01
06 15.01
07 15.01
08 15.01
09 15.01
10 15.01
11 15.01
12 15.01
13 15.01
14 15.01
15 15.01
16 15.01
17 15.01
18 15.01
19 15.01
20 15.01
21 15.01
22 15.01
23 15.01
00 16.01
01 16.01
02 16.01
03 16.01
04 16.01
05 16.01
06 16.01
07 16.01
08 16.01
09 16.01
10 16.01
11 16.01
12 16.01
13 16.01
14 16.01
15 16.01
16 16.01
17 16.01
18 16.01
19 16.01
20 16.01
21 16.01
22 16.01
23 16.01
00 17.01
01 17.01
02 17.01
03 17.01
04 17.01
05 17.01
06 17.01
07 17.01
08 17.01
09 17.01
10 17.01
11 17.01
12 17.01
13 17.01
14 17.01
15 17.01
16 17.01
17 17.01
18 17.01
19 17.01
20 17.01
21 17.01
22 17.01
23 17.01
00 18.01
01 18.01
02 18.01
03 18.01
04 18.01
05 18.01
06 18.01
Ветер
(напр.,м/с)
Видим. Явления Облачность Т
(С)
Тd
(С)
f
(%)
Тe
(С)
Тes
(С)
Комфортность P
(гПа)
Po
(гПа)
Тmin
(С)
Tmax
(С)
R
(мм)
R24
(мм)
S
(см)
ЮЗ 6-10
{10}
10 км слаб. дождь 10/10 270 м +4.2 +3.4 95 -1 -1 1012.5 1008.8
ЮЗ 6-9
{10}
12 км слаб. дождь 10/10 240 м +4.2 +3.3 94 -1 -1 1012.1 1008.4
ЮЗ 6-10
{10}
10 км дождь 9/9 210 м +4.3 +3.5 95 -1 -1 1011.9 1008.2 2
ЮЗ 6-8
{10}
2500 м морось {дождь} 9/9 150 м +4.3 +3.8 97 -1 -1 1011.7 1008.0
ЮЗ 7-12
{12}
12 км слаб. морось {дождь} 10/10 180 м +4.4 +3.7 95 -2 -2 1010.8 1007.1
ЮЗ 6-11
{12}
6000 м слаб. морось с дождем 10/10 180 м +4.1 +3.2 94 -2 -2 1010.0 1006.3 0.6
ЮЗ 7-11
{12}
13 км в посл. час дождь {морось} 10/10 180 м +3.9 +3.0 94 -2 -2 1008.8 1005.1
ЮЗ 7-10
{14}
7000 м слаб. морось с дождем 10/10 180 м +3.9 +3.0 94 -2 -2 1008.0 1004.3
ЮЗ 7-12
{14}
7000 м слаб. дождь {морось} 10/10 210 м +3.9 +3.0 94 -2 -2 1007.4 1003.7 0.3
ЮЗ 7-10
{13}
3200 м морось {дождь} 10/10 210 м +3.8 +3.2 96 -2 -2 1006.4 1002.8
ЮЗ 8-12
{14}
6000 м в посл. час дождь {морось} 9/9 180 м +4.2 +3.6 96 -2 -2 1005.4 1001.8
ЮЗ 8 5000 м в посл. час дождь {морось} 10/10 240 м +4.5 +3.6 94 -2 -2 1004.5 1000.9 +3.7 +4.5 0.9
ЮЗ 8-11
{15}
4800 м морось {дождь} 10/10 240 м +4.5 +3.6 94 -2 -2 1003.7 1000.1
ЮЗ 8-13
{13}
7000 м слаб. дождь {морось} 9/9 240 м +4.4 +3.5 94 -2 -2 1002.8 999.2
ЮЗ 8-13
{17}
7000 м слаб. морось с дождем 10/10 270 м +4.6 +3.5 93 -2 -2 1001.7 998.1 0.4
ЮЗ 8-13
{14}
11 км слаб. морось с дождем 9/9 300 м +4.8 +3.7 93 -1 -1 1000.4 996.8
ЮЗ 8-16
{16}
6000 м слаб. дождь 10/10 240 м +5.1 +4.2 94 -1 -1 999.3 995.7
ЮЗ 7-13
{17}
8000 м слаб. дождь {морось} 9/9 270 м +5.6 +4.7 94 0 0 998.1 994.5 3
ЮЗ 9-14
{14}
12 км слаб. дождь 9/9 270 м +6.4 +5.7 95 +1 +1 997.4 993.8
З 9-15
{15}
11 км слаб. дождь 10/10 240 м +6.6 +5.9 95 +1 +1 997.6 994.0
СЗ 6-9
{15}
19 км слаб. дождь 10/10 330 м +4.9 +3.5 91 -0 -0 998.5 994.9 4
СЗ 4-5
{7}
30 км слаб. морось {дождь} 10/10 450 м +4.2 +2.9 91 -0 -0 998.9 995.3
СЗ 3-4
{4}
>70 км в посл. час дождь {морось} 10/10 500 м +3.7 +2.7 93 -0 -0 998.9 995.3
З 2 70 км в посл. час морось {дождь} 10/10 1500 м +3.1 +2.4 95 -0 -0 999.0 995.4 +3.1 +6.7 0.0 10.3
З 3-4
{4}
45 км 10/10 360 м +2.4 +1.8 96 -2 -2 999.5 995.9
З 3-4
{4}
35 км ясно +1.3 +0.7 96 -3 -3 1000.1 996.4
З 3-4
{4}
40 км ясно +1.3 +0.3 93 -3 -3 1000.6 996.9
З 4-5
{5}
45 км ясно +2.6 +0.6 87 -2 -2 1000.9 997.3
З 4-6
{6}
50 км ясно +3.9 +0.8 80 -1 0 1000.6 997.0
З 4-6
{7}
65 км 4/4 1170 м +4.4 +0.5 76 0 +1 1000.1 996.5
З 5-7
{8}
60 км 9/9 750 м +4.7 +0.5 74 0 0 999.6 996.0
З 6-9
{12}
50 км в посл. час дождь {морось} 6/6 1260 м +3.6 +0.9 82 -2 -2 999.8 996.2
СЗ 6-9
{12}
30 км слаб. морось с дождем 10/10 420 м +3.0 +1.0 87 -3 -3 1000.8 997.2 0.1
СЗ 5-7
{9}
>70 км в посл. час дождь {морось} ясно +1.8 -0.1 87 -4 -4 1002.1 998.4
З 4-5
{6}
50 км 6/6 840 м +1.0 -0.1 92 -4 -4 1002.6 998.9
З 5 45 км {дождь, морось} 1/0 +1.1 -0.3 90 -5 -5 1002.9 999.2 +0.7 +4.9 0.0
З 6-8
{8}
45 км ясно +1.5 -0.7 85 -5 -5 1003.3 999.6
З 5-7
{10}
35 км ясно +1.3 -0.8 86 -4 -4 1004.0 1000.3
З 6-9
{10}
30 км 10/10 600 м +1.8 -0.5 85 -4 -4 1004.3 1000.6
З 8-13
{13}
55 км 10/0 +1.6 -0.3 87 -5 -5 1004.8 1001.1
З 6-9
{10}
45 км 10/10 1110 м +1.7 0.0 88 -5 -5 1005.2 1001.5
З 6-9
{13}
30 км слаб. дождь 10/10 700 м +1.9 -0.2 86 -4 -4 1005.9 1002.2 0.0
З 6-8
{10}
50 км слаб. морось {дождь} 9/9 750 м +1.5 +0.2 91 -5 -5 1005.6 1001.9
З 6-9
{11}
50 км в посл. час снег {дождь} 9/9 1080 м +1.4 0.0 90 -5 -5 1005.6 1001.9
З 6-10
{13}
40 км в посл. час снег {дождь} 10/10 180 м +0.9 +0.4 96 -6 -6 1005.1 1001.4 0.5
З 6-8
{9}
35 км 9/0 +1.5 +0.3 92 -5 -5 1004.7 1001.0
З 5-8
{11}
35 км 1/1 840 м +1.4 +0.1 91 -4 -4 1004.6 1000.9
З 6 45 км {снег, дождь} 9/9 1020 м +1.8 +0.1 88 -4 -4 1004.3 1000.6 +0.8 +2.1 0.6
З 6-10
{12}
30 км слаб. морось {дождь} 10/10 540 м +2.0 +0.5 90 -4 -4 1004.2 1000.5
З 6-9
{11}
30 км в посл. час снег {дождь} 10/0 +2.0 +0.6 90 -4 -4 1003.8 1000.1
З 6 30 км {снег, дождь} 10/10 900 м +2.4 +0.6 88 -4 -4 1003.0 999.3 0.2
З 8-12
{12}
26 км 10/10 1230 м +3.5 +0.9 83 -3 -3 1002.2 998.6
З 10-15
{15}
11 км слаб. морось с дождем 9/9 240 м +3.0 +1.8 92 -4 -4 1001.5 997.9
З 7-10
{15}
14 км слаб. дождь 9/9 210 м +1.8 +1.3 96 -5 -5 1000.6 996.9 2
З 8-11
{11}
40 км в посл. час снег {дождь} 10/10 450 м +2.9 +1.5 90 -4 -4 999.5 995.9
СЗ 9-13
{17}
30 км слаб. морось 9/9 540 м +3.2 -0.1 79 -4 -4 1000.3 996.7
СЗ 9-13
{17}
>70 км в посл. час снег {дождь} 9/9 570 м +1.8 -1.4 79 -5 -5 1001.9 998.2 0.0
СЗ 9-14
{15}
>70 км 10/10 500 м +1.1 -2.6 76 -6 -6 1003.2 999.5
СЗ 7-10
{13}
65 км 10/10 570 м +0.6 -2.9 77 -6 -6 1003.9 1000.2
СЗ 7 >70 км в посл. час зёрна {дождь} 10/10 630 м +0.9 -2.3 79 -6 -6 1004.4 1000.7 +0.5 +4.1 0.0
СЗ 7-10
{11}
60 км в посл. час зёрна 10/10 600 м +1.2 -2.1 79 -5 -5 1005.1 1001.4
С 9-15
{15}
50 км в посл. час снег 10/10 720 м +1.6 -2.5 74 -6 -6 1005.8 1002.1
С 9-15
{15}
45 км {снег, осадки} 9/9 570 м +1.6 -1.9 78 -6 -6 1006.6 1002.9 0.0
С 10-14
{16}
6000 м слаб. снег {дождь} 9/9 360 м +1.4 -0.4 88 -6 -6 1007.6 1003.9
С 10-16
{16}
1600 м слаб. снег {дождь} 9/9 210 м +0.7 -0.3 93 -7 -7 1009.1 1005.4
С 9-14
{16}
4800 м слаб. снег {дождь} 9/9 180 м +0.9 +0.3 96 -7 -7 1010.1 1006.4 1
С 10-14
{16}
3800 м слаб. снег {дождь} 9/9 180 м +0.9 +0.3 96 -7 -7 1011.5 1007.8
С 8-12
{14}
29 км слаб. дождь 10/10 330 м +1.2 +0.4 94 -6 -6 1013.0 1009.3
С 8-13
{16}
35 км в посл. час снег {дождь} 9/9 540 м +1.8 -0.4 85 -5 -5 1013.8 1010.1 0.4
С 8-11
{12}
50 км 9/9 600 м +2.0 -1.0 80 -5 -5 1014.9 1011.2
СВ 8-11
{14}
45 км 9/9 600 м +2.1 -1.2 79 -5 -5 1015.9 1012.2
С 6 50 км {снег, дождь} 10/10 570 м +1.8 -1.5 79 -4 -4 1016.8 1013.1 +0.6 +2.2 3.4
С 5-7
{10}
50 км 10/10 480 м +1.9 -1.0 81 -4 -4 1017.5 1013.8
С 6-10
{10}
17 км осадки 9/9 450 м +1.3 -0.7 87 -5 -5 1018.5 1014.8
С 5 45 км в посл. час дождь 10/10 500 м +1.4 -0.7 86 -4 -4 1019.4 1015.7 0.0
С 5-8
{9}
60 км в посл. час морось 10/10 600 м +1.7 -0.9 83 -4 -4 1020.0 1016.3
С 5-7
{8}
45 км в посл. час снег {дождь} 10/10 450 м +1.8 -0.6 84 -4 -4 1020.4 1016.7
С 6-8
{10}
55 км {снег, дождь} 10/10 500 м +2.0 -0.7 82 -4 -4 1020.6 1016.9 0.0
С 5-7
{8}
60 км 10/10 570 м +2.1 -0.9 81 -3 -3 1020.5 1016.8
С 4-7
{9}
50 км 10/10 540 м +2.2 -0.6 82 -3 -3 1020.7 1017.0
СВ 5-6
{9}
50 км 10/10 420 м +2.2 -0.2 84 -3 -3 1021.3 1017.6
СВ 3-5
{7}
55 км 10/10 570 м +2.2 -0.9 80 -2 -2 1021.8 1018.1
СВ 4-6
{7}
65 км 10/10 630 м +2.0 -1.3 79 -3 -3 1022.3 1018.6
СВ 4 60 км 9/9 600 м +1.9 -1.6 78 -3 -3 1022.5 1018.8 +1.2 +2.3
СВ 3-4
{6}
60 км 10/10 700 м +1.8 -1.8 77 -2 -2 1022.5 1018.8
СВ 4-6
{6}
60 км 10/10 720 м +1.8 -2.1 75 -3 -3 1022.9 1019.2
СВ 3-4
{6}
60 км 10/10 840 м +1.8 -1.8 77 -2 -2 1023.3 1019.6
СВ 3-5
{5}
2300 м снег {дождь} 10/10 180 м +1.0 -0.6 89 -4 -4 1023.5 1019.7
СВ 3-4
{6}
30 км в посл. час снег {дождь} 10/10 240 м +1.1 -0.1 92 -3 -3 1023.8 1020.0
СВ 4-6
{7}
50 км {снег, дождь} 10/10 540 м +1.2 -1.6 82 -4 -4 1023.8 1020.0 0.1
С 5-7
{8}
60 км в посл. час снег {дождь} 10/10 570 м +0.6 -2.4 80 -5 -5 1023.8 1020.0
С 4-6
{8}
65 км 10/10 570 м +0.5 -2.9 78 -5 -5 1024.1 1020.3
С 4-6
{8}
35 км слаб. снег {дождь} 10/10 500 м +0.3 -2.9 79 -5 -5 1024.2 1020.4 0.0
СЗ 4-7
{7}
45 км в посл. час снег 10/10 660 м +0.2 -3.5 76 -5 -5 1024.3 1020.5
СЗ 4-6
{7}
26 км снежные зёрна 10/10 720 м -0.1 -3.1 80 -5 -5 1024.5 1020.7
С 4 45 км в посл. час переохл. осадки (гололёд) 9/9 700 м +0.2 -4.3 72 -5 -5 1024.8 1021.0 -0.1 +2.1 0.0 0.1
С 4-6
{9}
65 км в посл. час снег 10/10 720 м 0.0 -4.9 70 -5 -5 1025.1 1021.3
С 4-6
{7}
45 км слаб. снег {дождь} 10/10 700 м -0.1 -4.0 75 -5 -5 1025.8 1022.0
СВ 5-7
{10}
>70 км в посл. час переохл. осадки (гололёд) 10/10 840 м -0.2 -5.7 66 -6 -6 1026.0 1022.2 0.0
С 5-7
{8}
65 км в посл. час переохл. осадки (гололёд) 10/10 900 м -0.1 -5.3 68 -6 -6 1026.7 1022.9
СВ 7-9
{10}
>70 км в посл. час переохл. осадки (гололёд) 10/10 800 м -0.6 -5.5 69 -8 -8 1027.0 1023.2
СВ 6-9
{10}
>70 км {снег, дождь} 10/10 900 м -0.7 -5.9 68 -7 -7 1027.2 1023.4 0.0
С 5-7
{8}
>70 км 10/10 870 м -0.8 -6.6 65 -7 -7 1027.2 1023.4
С 5-7
{8}
>70 км 10/10 870 м -0.7 -6.2 66 -7 -7 1027.4 1023.6
С 4-7
{8}
>70 км 10/10 800 м -0.4 -6.1 65 -6 -6 1027.6 1023.8
С 4-6
{6}
>70 км {снег} 10/10 800 м -0.4 -5.6 68 -6 -6 1027.7 1023.9
С 3-5
{6}
>70 км {снег} 10/10 800 м -0.4 -5.6 68 -5 -5 1028.0 1024.2
С 3 >70 км {снег} 10/10 800 м -0.7 -5.8 68 -5 -5 1028.1 1024.3 -0.9 +0.2 0.0
СЗ 4-5
{6}
55 км 10/10 800 м -1.0 -5.7 70 -6 -6 1028.3 1024.5
СЗ 2-3
{5}
65 км 10/10 800 м -1.0 -5.8 70 -4 -4 1028.2 1024.4
СЗ 3-5
{6}
55 км 10/10 900 м -1.0 -5.8 70 -6 -6 1028.0 1024.2
З 3-4
{5}
45 км 10/10 930 м -1.3 -5.2 75 -6 -6 1028.0 1024.2
СЗ 4-5
{5}
>70 км 10/10 960 м -0.8 -5.3 72 -6 -6 1027.9 1024.1
З 3-4
{6}
55 км 10/10 870 м -1.1 -5.0 75 -6 -6 1027.6 1023.8
СЗ 4-6
{6}
55 км 10/10 900 м -0.9 -5.2 73 -6 -6 1027.3 1023.5
СЗ 3-5
{5}
50 км 10/10 930 м -1.0 -4.9 75 -6 -6 1027.3 1023.5
З 3-4
{6}
40 км 10/10 930 м -1.7 -4.7 80 -7 -7 1026.7 1022.9
СЗ 2-3
{5}
40 км 10/10 930 м -1.7 -4.7 80 -5 -5 1026.5 1022.7
СЗ 2-2
{4}
45 км 10/10 960 м -1.8 -4.5 82 -6 -6 1026.3 1022.5
З 2 40 км 9/9 1000 м -2.2 -4.6 84 -6 -6 1025.8 1022.0 -2.4 -0.7
З 2-2
{2}
40 км 9/9 960 м -2.3 -4.7 84 -6 -6 1025.4 1021.6
З 2-2
{3}
25 км 9/9 800 м -2.7 -4.8 85 -7 -7 1025.2 1021.4
З 1-2
{3}
30 км 9/9 800 м -1.7 -4.2 83 -4 -4 1025.1 1021.3
З 2-3
{3}
45 км 8/8 800 м -1.0 -5.1 74 -5 -4 1024.7 1020.9
З 3-4
{4}
45 км ясно -0.2 -5.3 68 -5 -3 1024.0 1020.2
ЮЗ 3-4
{4}
50 км 1/0 +0.6 -5.7 63 -4 -2 1023.1 1019.3
ЮЗ 3-4
{4}
40 км 9/0 +0.6 -5.1 66 -4 -3 1022.2 1018.4
ЮЗ 3-4
{4}
45 км 10/0 +0.5 -4.6 69 -4 -4 1021.5 1017.7
ЮЗ 2-4
{5}
40 км 6/0 -0.1 -4.6 72 -3 -3 1021.3 1017.5
Ю 2-4
{4}
35 км 9/9 1200 м -0.1 -4.4 73 -3 -3 1020.6 1016.8
Ю 2-3
{4}
29 км 10/10 1230 м -0.3 -4.1 75 -4 -4 1020.1 1016.3
Ю 2 35 км 10/10 1260 м -0.4 -4.1 76 -4 -4 1019.8 1016.0 -3.2 +1.0
Ю 3-4
{5}
29 км 10/10 1260 м -0.5 -4.1 77 -5 -5 1019.5 1015.7
Ю 3-4
{5}
28 км 10/10 1260 м -0.6 -4.1 77 -5 -5 1019.2 1015.4
Ю 2-4
{5}
29 км 10/10 1230 м -0.3 -4.0 76 -4 -4 1018.8 1015.0
Ю 2-5
{5}
25 км 10/10 1230 м -0.5 -3.9 78 -4 -4 1018.5 1014.7
Ю 2-3
{4}
22 км 10/10 1200 м -1.0 -3.7 82 -5 -5 1018.2 1014.4
Ю 2-3
{5}
17 км 10/0 -1.2 -3.7 83 -5 -5 1017.8 1014.0
Ю 3-4
{4}
15 км 10/10 1200 м -1.3 -3.4 86 -6 -6 1017.5 1013.7
Ю 2-3
{4}
16 км 10/10 1170 м -1.4 -3.3 87 -5 -5 1017.3 1013.5
Ю 3-4
{4}
17 км 10/10 1170 м -1.1 -3.3 85 -6 -6 1017.1 1013.3
Ю 2-4
{5}
15 км 10/10 1170 м -1.2 -3.1 87 -5 -5 1017.0 1013.2
ЮВ 2-4
{4}
12 км 10/10 1140 м -1.4 -3.2 88 -5 -5 1017.0 1013.2
ЮВ 3 12 км 10/0 -1.7 -3.5 87 -7 -7 1017.2 1013.4 -1.8 -0.3
Ю 2-4
{5}
11 км 10/0 -2.1 -3.8 88 -6 -6 1017.4 1013.6
ЮВ 3-5
{5}
10 км 10/0 -2.5 -4.1 89 -8 -8 1017.9 1014.1
ЮВ 2 9000 м 10/0 -2.3 -3.9 89 -6 -6 1018.5 1014.7
ЮВ 2-4
{5}
11 км 10/0 -1.4 -3.5 86 -5 -5 1019.1 1015.3
Ю 4-5
{5}
16 км 10/0 -1.0 -3.9 81 -7 -6 1019.2 1015.4
Ю 3-5
{6}
16 км 5/0 0.0 -3.7 76 -4 -4 1019.0 1015.2
Ю 4-5
{5}
24 км ясно +0.2 -4.3 72 -5 -4 1019.0 1015.3
Ю 3-4
{5}
30 км ясно +0.4 -4.5 70 -4 -4 1018.9 1015.2
Ю 3-5
{5}
30 км 10/0 -0.1 -4.6 72 -5 -5 1019.5 1015.7
ЮВ 3-4
{5}
19 км 10/0 -0.9 -4.2 78 -6 -6 1019.8 1016.0
ЮВ 3-4
{5}
23 км 10/10 1500 м -0.6 -4.0 78 -5 -5 1020.1 1016.3
Ю 3 26 км 10/10 1500 м -0.6 -4.1 77 -5 -5 1019.9 1016.1 -2.6 +0.6
Ю 4-6
{6}
35 км 10/10 840 м -0.7 -4.6 75 -6 -6 1020.1 1016.3
Ю 3-5
{6}
30 км 10/10 840 м -0.9 -4.5 77 -6 -6 1020.0 1016.2
Ю 3-4
{6}
26 км 10/10 800 м -0.7 -4.2 77 -5 -5 1019.5 1015.7
Ю 3-4
{5}
24 км в посл. час зёрна 10/10 570 м -0.6 -4.1 77 -5 -5 1019.6 1015.8
Ю 3-5
{6}
9000 м снежные зёрна {морось} 10/10 360 м -0.9 -3.5 83 -6 -6 1019.4 1015.6
Ю 3-4
{6}
16 км в посл. час снег {морось} 10/10 270 м -0.7 -3.4 82 -5 -5 1019.0 1015.2 0.0 1
Ю 3-5
{5}
12 км в посл. час зёрна 10/10 240 м -0.5 -2.9 84 -5 -5 1018.7 1014.9
Ю 3-4
{5}
7000 м снежные зёрна {морось} 9/9 240 м -0.7 -2.1 90 -6 -6 1018.1 1014.3
Ю 3-5
{5}
6000 м снежные зёрна {морось} 9/9 210 м -0.7 -1.8 92 -6 -6 1018.0 1014.2 0.0
ЮЗ 3-5
{6}
3600 м в посл. час переохл. осадки (гололёд) {морось} 10/10 120 м -0.6 -1.2 96 -6 -6 1017.8 1014.0
ЮЗ 2-4
{5}
500 м переохл. туман {дымка} 10/10 30 м -0.4 -0.5 99 -4 -4 1017.4 1013.7
Ю 3 300 м переохл. туман {снег} 10/10 <50 м -0.2 -0.2 100 -5 -5 1016.8 1013.1 -1.0 -0.1 0.0 1
Местоположение метеостанции Киль (Германия): широта 54.38 долгота 10.15 высота над уровнем моря 31 м.
В архиве по умолчанию представлена погода в Киле за последнюю неделю. Архивные данные за месяц целиком и за предыдущие месяцы, начиная с января 2011 года, Вы можете получить, выбрав интересующий диапазон дат из раскрывающегося списка и нажав кнопку "Найти!".
*Определитесь, кто Вы:
Внимание! Время в таблицах - всемирное. Для получения местного времени необходимо прибавить поправку, которая равна 1 ч.
Смотрите также архив погоды в соседних городах и на ближайших метеорологических станциях:
Партнеры нашего сайта:      
Пояснения к столбцам:
  • Ветер - указаны скорость ветра в м/с - средняя за 10 мин, порывы в срок и между сроками (в фигурных скобках) и направление, откуда дует ветер: С - северный,
  • СВ - северо-восточный, В - восточный, ЮВ - юго-восточный, Ю - южный, ЮЗ - юго-западный, З - западный, СЗ - северо-западный.
  • Видимость - горизонтальная дальность видимости в метрах или километрах. При видимости от 1 до 10 км при отсутствии осадков обычно наблюдается дымка, при ухудшении видимости до 1 км и менее - туман. В сухую погоду видимость может ухудшаться дымом, пылью или мглою.
  • Явления - указаны атмосферные явления, наблюдавшиеся в срок или в последний час перед сроком; фигурными скобками обозначены явления, наблюдавшиеся между сроками (за 1-3 часа до срока); квадратными скобками обозначены град или гололедные отложения с указанием их диаметра в мм.
  • Облачность - указаны через наклонную черту общая и нижняя облачность в баллах и высота нижней границы облаков в метрах; квадратными скобками обозначены формы облаков: Ci - перистые, Cs - перисто-слоистые, Cc - перисто-кучевые, Ac - высококучевые, As - высокослоистые, Sc - слоисто-кучевые, Ns - слоисто-дождевые, Cu - кучевые, Cb - кучево-дождевые. Подробнее классификацию облаков см. в Атласе облаков (PDF).
  • T - Температура воздуха - температура, измеренная на высоте 2 м над землей.
  • Td - Температура точки росы - температура, при понижении до которой содержащийся в воздухе водяной пар достигнет насыщения.
  • f - Относительная влажность воздуха - влажноcть воздуха, измеренная на высоте 2 м над землей.
  • Te - Эффективная температура - температура, которую ощущает одетый по сезону человек в тени. Характеристика душности погоды. При расчете учитывается влияние влажности воздуха и скорости ветра на теплоощущения человека.
  • Tes - Эффективная температура на солнце - температура, которую ощущает человек, с поправкой на солнечный нагрев. Характеристика знойности погоды. Зависит от высоты солнца над горизонтом, облачности и скорости ветра. Ночью, в пасмурную погоду, а также при ветре 12 м/с и более поправка равна нулю.
  • P - Атмосферное давление - приведенное к уровню моря атмосферное давление.
  • Po - Атмосферное давление - измеренное на уровне метеостанции атмосферное давление.
  • Tmin - Минимальная температура - минимум температуры воздуха на высоте 2 м над землей.
  • Tmax - Максимальная температура - максимум температуры воздуха на высоте 2 м над землей.
  • R - Количество осадков - Количество выпавших осадков за период времени, мм. При наведении курсора мыши на число - период времени, за который выпало указанное количество осадков.
  • R24 - Количество осадков - Количество выпавших осадков за 24 часа, мм.
  • S - Снежный покров - Высота снежного покрова, см. При наведении курсора мыши на число - состояние снежного покрова и степень покрытия местности в баллах.